Regional Weather Roundup
Issued by NWS Little Rock, AR

Home | Current Version | Previous Version | Text Only | Print | Product List | Glossary Off
Versions: 1 2 3 4 5 6 7 8 9 10 11 12 13 14 15 16 17 18 19 20 21 22 23 24 25 26 27 28 29 30 31 32 33 34 35 36 37 38 39 40 41 42 43 44 45 46 47 48 49 50

000
ASUS44 KLZK 192305
RWRLZK

WEATHER ROUNDUP FOR ARKANSAS
NATIONAL WEATHER SERVICE LITTLE ROCK AR
600 PM CDT THU OCT 19 2017

NOTE: "FAIR" INDICATES FEW OR NO CLOUDS BELOW 12,000 FEET WITH NO
SIGNIFICANT WEATHER AND/OR OBSTRUCTIONS TO VISIBILITY.

ARZ001-003-010-029-200000-
NORTHWEST ARKANSAS

CITY           SKY/WX    TMP DP  RH WIND       PRES   REMARKS
FAYETTEVILLE   CLOUDY    70  50  49 S7        30.14F
FORT SMITH     CLOUDY    78  52  40 E5        30.11F
HARRISON       PTCLDY    75  45  34 S9        30.16S
BENTONVILLE    CLOUDY    74  53  48 S3        30.15F
ROGERS         CLOUDY    74  53  48 E6        30.15S
SILOAM SPGS    CLEAR     73  52  47 S8        30.14S
HIGHFILL       CLOUDY    73  54  51 S5        30.14F
SPRINGDALE     MOCLDY    73  48  40 S5        30.15F
$$

ARZ004-005-016-200000-
NORTH CENTRAL ARKANSAS

CITY           SKY/WX    TMP DP  RH WIND       PRES   REMARKS
BATESVILLE     PTCLDY    73  54  51 S3        30.17S
FLIPPIN        CLOUDY    76  48  37 SE3       30.15S
MTN HOME       PTCLDY    73  48  41 SE5       30.14F
$$

ARZ040-041-200000-
WEST CENTRAL ARKANSAS

CITY           SKY/WX    TMP DP  RH WIND       PRES   REMARKS
MENA           CLEAR     79  50  36 CALM      30.15S
$$

ARZ009-017-025-026-028-200000-
NORTHEAST ARKANSAS

CITY           SKY/WX    TMP DP  RH WIND       PRES   REMARKS
CORNING        FAIR      75  55  50 MISG      30.16F
JONESBORO      CLEAR     74  52  46 SE5       30.17S
NEWPORT        CLEAR     71  51  49 S8        30.17S
WALNUT RIDGE   CLEAR     72  51  47 S7        30.17R
BLYTHEVILLE    CLOUDY    74  52  46 SE3       30.18F
$$

ARZ022-023-033-042-044-200000-
CENTRAL ARKANSAS

CITY           SKY/WX    TMP DP  RH WIND       PRES   REMARKS
LITTLE ROCK    CLOUDY    76  53  44 S5        30.15S
JACKSONVILLE   PTCLDY    76  54  45 E5        30.15S
SEARCY         PTCLDY    71  58  63 SE3       30.17S
HOT SPRINGS    PTCLDY    76  49  38 E6        30.15S
RUSSELLVILLE   CLEAR     74  55  51 E5        30.13S
CLINTON        FAIR      73  59  60 CALM      30.16R
$$

ARZ036-200000-
EAST ARKANSAS

CITY           SKY/WX    TMP DP  RH WIND       PRES   REMARKS
WEST MEMPHIS   CLEAR     67  55  65 S3        30.17S
$$

ARZ050-053-066-070-073-200000-
SOUTHWEST ARKANSAS

CITY           SKY/WX    TMP DP  RH WIND       PRES   REMARKS
ARKADELPHIA    FAIR      70  63  78 CALM      30.15S
CAMDEN         PTCLDY    73  57  56 CALM      30.14S
TEXARKANA      CLOUDY    74  51  44 E5        30.13S
EL DORADO      MOCLDY    72  59  63 E5        30.15S
DE QUEEN       CLOUDY    77  50  38 SE6       30.11S
$$

ARZ056-057-069-200000-
SOUTHEAST ARKANSAS

CITY           SKY/WX    TMP DP  RH WIND       PRES   REMARKS
PINE BLUFF     PTCLDY    75  46  35 E7        30.16R
STUTTGART      CLOUDY    74  53  48 E7        30.17S
MONTICELLO     CLEAR     71  57  61 CALM      30.16S

$$





USA.gov is the U.S. government's official web portal to all federal, state and local government web resources and services.